Temp
-8 -8 -8 -8 -8 -7 -7 -8 -8 -8 -8 -8 -8 -8 -8 -8 -8 -8 -9 -9 -9 -8 -9 -9 -8 -9 -9 -9 -9 -8 -8 -8 -8 -9 -9 -9 -9 -8 -7 -7 -8 -7 -7
-8 -8 -8 -8 -8 -7 -8 -8 -8 -8 -8 -8 -8 -8 -8 -9 -9 -9 -9 -9 -9 -9 -9 -9 -9 -9 -9 -9 -9 -9 -8 -8 -8 -8 -10 -10 -9 -9 -8 -7 -8 -7 -8
-8 -8 -8 -8 -8 -8 -8 -8 -9 -9 -9 -9 -9 -8 -9 -9 -9 -9 -9 -9 -9 -9 -9 -9 -9 -9 -9 -9 -9 -9 -9 -8 -8 -8 -9 -10 -10 -9 -8 -8 -8 -8 -8
-9 -8 -9 -9 -9 -9 -9 -9 -10 -10 -10 -10 -10 -10 -10 -10 -10 -10 -10 -10 -10 -9 -10 -10 -9 -9 -9 -9 -10 -9 -9 -9 -9 -8 -8 -9 -10 -10 -9 -9 -9 -8 -8
-9 -9 -9 -9 -9 -10 -10 -10 -11 -11 -11 -11 -11 -11 -11 -11 -11 -11 -11 -10 -10 -10 -10 -10 -10 -10 -9 -9 -9 -9 -9 -9 -9 -9 -9 -9 -10 -10 -10 -10 -9 -8 -8
-10 -10 -10 -10 -10 -10 -11 -11 -11 -11 -11 -11 -11 -11 -11 -11 -11 -11 -11 -11 -10 -10 -10 -10 -10 -10 -9 -9 -9 -9 -9 -9 -9 -9 -9 -9 -9 -10 -10 -10 -9 -9 -9
-10 -10 -10 -11 -11 -11 -11 -11 -11 -11 -11 -12 -12 -13 -12 -12 -12 -12 -11 -11 -10 -10 -10 -10 -10 -10 -10 -10 -9 -9 -9 -9 -9 -9 -8 -9 -9 -9 -10 -10 -9 -9 -9
-10 -11 -11 -11 -11 -11 -11 -11 -12 -12 -13 -13 -13 -14 -13 -14 -13 -13 -13 -11 -11 -11 -11 -11 -11 -11 -11 -10 -10 -10 -9 -9 -9 -9 -8 -8 -9 -10 -10 -9 -9 -9 -9
-11 -11 -11 -11 -11 -11 -12 -12 -12 -12 -12 -13 -13 -14 -15 -15 -15 -14 -14 -12 -12 -12 -12 -12 -12 -11 -11 -12 -11 -10 -10 -9 -10 -9 -9 -8 -9 -9 -9 -9 -9 -9 -9
-11 -11 -11 -11 -12 -12 -12 -12 -12 -12 -13 -13 -14 -14 -15 -15 -15 -15 -14 -13 -13 -13 -12 -12 -12 -12 -12 -12 -12 -11 -11 -10 -10 -10 -9 -9 -9 -9 -9 -9 -9 -9 -9
-11 -11 -12 -12 -12 -12 -12 -12 -13 -13 -13 -13 -13 -14 -14 -14 -15 -14 -14 -13 -13 -13 -12 -12 -12 -11 -11 -11 -11 -12 -11 -12 -11 -11 -10 -9 -9 -9 -8 -9 -9 -9 -9
-12 -12 -13 -13 -12 -12 -12 -13 -13 -13 -13 -14 -14 -14 -14 -14 -14 -14 -13 -13 -13 -12 -12 -12 -12 -11 -11 -10 -10 -11 -11 -11 -11 -11 -11 -10 -9 -9 -9 -9 -9 -9 -9
-13 -14 -13 -13 -13 -13 -13 -13 -13 -13 -13 -14 -14 -14 -14 -14 -14 -13 -13 -13 -13 -12 -12 -12 -12 -12 -11 -11 -11 -11 -11 -11 -11 -11 -11 -10 -10 -10 -9 -9 -9 -8 -9
-14 -14 -13 -13 -13 -13 -13 -13 -13 -13 -13 -14 -14 -13 -13 -13 -13 -13 -13 -12 -12 -12 -12 -12 -12 -11 -11 -11 -11 -11 -11 -11 -11 -11 -11 -11 -10 -10 -9 -9 -8 -8 -8
-13 -13 -13 -13 -13 -13 -13 -12 -13 -13 -13 -13 -14 -13 -13 -13 -13 -13 -13 -13 -12 -13 -13 -12 -11 -10 -11 -10 -10 -11 -11 -11 -11 -11 -11 -10 -10 -9 -9 -9 -8 -8 -8
-14 -14 -14 -13 -13 -13 -13 -13 -13 -13 -13 -14 -13 -13 -14 -13 -13 -13 -13 -13 -14 -13 -13 -13 -12 -11 -11 -10 -10 -11 -11 -11 -11 -11 -10 -10 -10 -10 -9 -9 -8 -8 -8
-14 -14 -14 -14 -13 -13 -13 -13 -13 -13 -13 -13 -13 -13 -13 -13 -13 -13 -13 -13 -13 -13 -13 -13 -12 -11 -10 -10 -11 -11 -11 -11 -11 -10 -10 -10 -10 -10 -9 -9 -8 -8 -8
-14 -14 -14 -14 -14 -13 -13 -13 -13 -13 -13 -13 -13 -13 -13 -13 -13 -13 -13 -14 -14 -13 -13 -13 -13 -12 -12 -10 -10 -11 -11 -10 -10 -10 -10 -10 -10 -10 -9 -9 -9 -8 -8
-14 -15 -14 -14 -14 -14 -13 -13 -13 -13 -13 -13 -13 -13 -13 -13 -13 -13 -13 -13 -13 -13 -12 -12 -13 -12 -12 -10 -10 -10 -10 -10 -9 -8 -10 -10 -9 -9 -9 -9 -8 -8 -8
-14 -14 -14 -14 -14 -14 -13 -14 -14 -14 -13 -13 -13 -13 -13 -13 -13 -13 -13 -13 -13 -13 -12 -13 -13 -13 -12 -12 -11 -10 -10 -10 -10 -9 -9 -9 -9 -9 -9 -9 -8 -8 -8
-15 -15 -15 -15 -15 -15 -14 -14 -14 -14 -14 -14 -14 -13 -13 -13 -13 -13 -13 -13 -13 -13 -13 -13 -13 -13 -12 -12 -13 -12 -10 -10 -10 -10 -10 -9 -9 -9 -9 -9 -9 -9 -9
-16 -15 -15 -16 -16 -15 -15 -15 -15 -15 -14 -14 -14 -14 -14 -13 -13 -14 -13 -13 -13 -13 -14 -14 -13 -13 -13 -13 -13 -13 -13 -13 -12 -12 -11 -10 -11 -10 -10 -9 -10 -9 -9
-16 -16 -16 -16 -16 -16 -16 -15 -15 -15 -15 -15 -15 -14 -14 -14 -14 -14 -14 -13 -13 -13 -14 -14 -14 -14 -13 -13 -13 -13 -12 -12 -13 -13 -13 -12 -11 -11 -11 -11 -11 -10 -10
-16 -17 -17 -17 -17 -16 -16 -16 -16 -16 -15 -15 -15 -15 -15 -15 -15 -14 -14 -14 -14 -14 -14 -14 -14 -14 -14 -14 -13 -13 -13 -13 -12 -12 -12 -12 -12 -11 -11 -11 -11 -11 -11
-17 -17 -17 -17 -18 -18 -17 -17 -17 -16 -16 -15 -15 -15 -15 -15 -15 -15 -14 -15 -15 -15 -15 -14 -14 -14 -14 -14 -14 -14 -13 -13 -13 -13 -12 -12 -12 -12 -12 -11 -11 -11 -11
-17 -17 -18 -19 -19 -19 -18 -18 -17 -17 -16 -16 -16 -16 -16 -15 -15 -15 -15 -15 -15 -15 -15 -15 -15 -15 -14 -14 -14 -14 -14 -14 -14 -13 -13 -13 -13 -13 -13 -13 -13 -12 -12
Height
5901 5898 5896 5893 5891 5888 5886 5882 5879 5876 5872 5868 5864 5861 5858 5855 5852 5849 5846 5844 5843 5842 5841 5839 5839 5839 5839 5839 5839 5839 5840 5841 5844 5844 5842 5843 5845 5847 5850 5852 5853 5855 5855
5893 5890 5888 5884 5881 5878 5875 5872 5868 5864 5860 5855 5851 5847 5842 5839 5836 5833 5833 5830 5829 5828 5827 5826 5826 5825 5825 5826 5827 5828 5828 5829 5830 5836 5833 5833 5835 5836 5840 5842 5844 5847 5848
5884 5881 5878 5875 5872 5868 5863 5859 5855 5850 5845 5840 5835 5830 5826 5823 5820 5817 5815 5814 5813 5812 5812 5810 5811 5811 5811 5811 5813 5814 5815 5816 5817 5822 5825 5823 5825 5828 5830 5833 5836 5839 5841
5874 5872 5868 5863 5858 5853 5849 5845 5840 5834 5829 5824 5819 5814 5808 5805 5802 5799 5797 5797 5796 5796 5795 5794 5794 5794 5796 5796 5797 5800 5801 5802 5804 5807 5812 5813 5814 5819 5820 5824 5827 5830 5834
5866 5861 5855 5849 5844 5839 5834 5829 5821 5815 5809 5804 5800 5795 5790 5785 5782 5780 5777 5778 5779 5779 5779 5777 5777 5777 5779 5780 5781 5785 5786 5787 5790 5793 5799 5801 5805 5807 5811 5814 5818 5822 5826
5852 5847 5841 5836 5830 5823 5817 5810 5802 5796 5789 5783 5778 5772 5768 5765 5762 5759 5758 5760 5761 5761 5761 5761 5760 5760 5761 5763 5765 5768 5770 5773 5776 5779 5786 5790 5795 5798 5801 5804 5809 5814 5818
5839 5834 5827 5821 5814 5807 5799 5792 5786 5778 5770 5762 5758 5752 5748 5743 5740 5738 5738 5741 5743 5743 5743 5744 5744 5744 5744 5746 5749 5751 5753 5757 5761 5766 5771 5779 5783 5789 5791 5793 5799 5804 5809
5826 5820 5814 5805 5798 5791 5783 5775 5767 5759 5752 5745 5739 5733 5728 5725 5722 5721 5721 5724 5725 5725 5725 5726 5726 5727 5727 5728 5730 5733 5738 5742 5745 5750 5756 5767 5771 5775 5778 5783 5786 5792 5797
5813 5807 5799 5791 5783 5776 5769 5761 5752 5744 5737 5730 5723 5718 5713 5711 5709 5708 5707 5708 5709 5710 5710 5710 5709 5710 5710 5711 5712 5717 5722 5727 5732 5736 5742 5750 5756 5761 5765 5769 5775 5780 5788
5800 5794 5786 5778 5771 5764 5756 5749 5740 5732 5725 5718 5714 5708 5703 5700 5699 5696 5695 5696 5697 5697 5695 5694 5694 5693 5693 5695 5697 5700 5705 5716 5718 5722 5728 5733 5739 5745 5751 5756 5765 5769 5777
5787 5779 5773 5766 5759 5751 5743 5736 5728 5720 5714 5709 5704 5699 5694 5691 5689 5687 5686 5687 5685 5685 5683 5682 5679 5676 5677 5681 5683 5686 5695 5700 5702 5706 5712 5718 5723 5730 5737 5745 5752 5759 5765
5773 5766 5760 5755 5748 5739 5732 5725 5716 5709 5703 5698 5694 5691 5686 5683 5681 5679 5678 5676 5673 5673 5672 5669 5668 5665 5663 5667 5669 5676 5681 5684 5689 5693 5698 5706 5711 5718 5726 5733 5740 5746 5753
5759 5754 5749 5743 5737 5729 5722 5715 5707 5699 5691 5685 5683 5680 5678 5676 5673 5671 5670 5666 5665 5664 5662 5662 5662 5660 5659 5660 5661 5665 5668 5673 5677 5682 5688 5696 5701 5707 5713 5720 5727 5733 5739
5749 5744 5739 5733 5728 5721 5713 5705 5697 5689 5681 5674 5671 5669 5668 5668 5666 5663 5662 5659 5656 5655 5656 5656 5655 5654 5652 5653 5654 5655 5658 5661 5666 5671 5677 5684 5689 5694 5701 5708 5714 5720 5725
5739 5734 5730 5724 5719 5712 5704 5698 5690 5682 5674 5664 5661 5660 5661 5660 5658 5656 5654 5652 5650 5651 5651 5650 5648 5645 5646 5642 5646 5647 5648 5651 5656 5662 5668 5673 5679 5685 5692 5697 5704 5708 5713
5730 5725 5721 5716 5711 5703 5697 5691 5681 5676 5669 5663 5657 5655 5653 5652 5652 5650 5649 5649 5648 5648 5648 5645 5642 5638 5637 5639 5638 5640 5642 5646 5650 5654 5659 5665 5671 5677 5683 5687 5693 5698 5702
5721 5717 5713 5708 5703 5696 5690 5684 5679 5671 5665 5660 5656 5652 5649 5648 5649 5648 5647 5647 5646 5645 5644 5642 5638 5635 5635 5634 5634 5635 5638 5641 5644 5647 5652 5658 5664 5669 5674 5679 5683 5687 5692
5712 5708 5704 5700 5696 5689 5684 5679 5673 5667 5662 5657 5653 5651 5650 5649 5648 5647 5646 5645 5645 5644 5642 5639 5636 5632 5630 5628 5630 5630 5629 5636 5639 5642 5646 5651 5656 5661 5665 5669 5674 5678 5681
5703 5699 5695 5691 5687 5683 5678 5673 5668 5663 5658 5653 5650 5649 5648 5647 5648 5647 5645 5644 5643 5643 5641 5638 5636 5633 5629 5627 5627 5627 5624 5627 5623 5628 5640 5645 5649 5653 5657 5660 5664 5666 5668
5692 5688 5684 5681 5678 5674 5671 5667 5663 5658 5655 5649 5647 5646 5646 5646 5645 5645 5644 5643 5642 5641 5640 5638 5636 5633 5629 5626 5624 5625 5626 5625 5626 5628 5630 5638 5641 5645 5649 5652 5655 5656 5656
5682 5678 5674 5671 5668 5665 5663 5659 5658 5654 5651 5647 5645 5643 5643 5642 5640 5641 5641 5640 5639 5638 5637 5636 5635 5633 5630 5629 5627 5625 5623 5624 5625 5625 5624 5631 5636 5638 5641 5646 5643 5645 5647
5673 5669 5665 5662 5660 5658 5656 5653 5651 5649 5647 5644 5641 5640 5639 5638 5638 5637 5637 5638 5637 5637 5635 5634 5633 5632 5630 5629 5626 5625 5624 5622 5623 5624 5624 5627 5629 5632 5635 5637 5638 5639 5640
5664 5660 5656 5653 5651 5648 5647 5646 5644 5643 5642 5640 5637 5636 5635 5634 5634 5635 5635 5634 5634 5633 5632 5632 5630 5629 5627 5626 5625 5625 5625 5625 5625 5626 5626 5626 5626 5627 5629 5630 5631 5633 5635
5655 5650 5646 5641 5639 5637 5636 5636 5637 5637 5636 5635 5633 5631 5630 5629 5628 5628 5629 5629 5629 5628 5628 5629 5628 5626 5625 5624 5622 5621 5622 5623 5622 5623 5623 5625 5625 5625 5625 5625 5626 5627 5628
5648 5641 5635 5630 5626 5625 5625 5625 5628 5628 5629 5630 5629 5627 5625 5624 5624 5624 5624 5624 5624 5624 5624 5624 5624 5623 5622 5621 5620 5619 5619 5619 5619 5618 5619 5621 5620 5619 5620 5621 5621 5621 5623
5643 5635 5627 5620 5615 5613 5613 5615 5619 5622 5624 5624 5624 5623 5622 5620 5620 5620 5620 5620 5621 5620 5619 5618 5617 5617 5617 5616 5615 5615 5615 5615 5614 5614 5613 5613 5613 5614 5614 5614 5615 5616 5616
Wind_Speed
32 34 34 37 37 37 37 36 39 41 43 45 47 49 50 50 52 54 55 54 54 54 52 52 51 49 46 43 44 42 40 40 35 34 41 41 40 40 36 30 29 29 26
38 39 40 40 41 40 41 42 44 46 48 51 54 56 57 57 59 58 56 57 57 56 55 54 53 54 52 47 44 43 44 41 40 36 39 40 40 42 38 32 29 28 23
42 44 44 44 46 46 47 49 51 53 55 57 59 60 62 63 64 64 62 59 56 55 55 56 54 54 53 51 48 45 45 43 44 42 40 42 42 43 41 34 29 28 21
48 48 48 50 51 53 55 57 58 60 60 61 62 64 66 65 65 64 62 61 57 54 53 54 55 53 50 51 49 47 44 46 45 45 43 42 46 43 43 37 31 30 21
49 51 53 55 58 61 63 63 65 66 66 67 67 67 67 68 66 64 62 56 56 53 51 49 47 50 48 48 49 46 46 46 46 45 44 44 45 46 42 39 35 32 25
52 55 57 60 64 67 68 69 70 71 73 74 73 71 68 68 69 66 62 56 52 52 51 48 46 48 49 48 51 50 49 46 46 46 43 45 44 47 45 42 40 34 30
56 58 62 65 68 68 69 71 73 72 68 62 59 58 58 55 56 58 58 54 52 50 51 50 49 49 49 49 49 50 52 49 48 48 46 44 44 46 49 48 44 39 35
59 62 65 66 67 69 69 66 63 63 62 63 59 56 52 50 50 49 46 46 47 48 49 50 50 49 49 51 50 51 50 52 51 50 49 47 48 51 52 51 48 45 40
61 63 65 65 65 64 59 59 59 54 53 52 48 43 39 39 38 37 39 37 39 43 45 49 51 50 52 52 53 52 52 53 52 50 49 49 52 55 57 54 50 48 42
60 61 61 61 57 52 50 49 50 50 48 37 40 40 36 35 34 35 34 35 37 40 42 44 41 43 46 45 50 51 51 47 50 50 49 50 54 53 58 59 53 50 45
56 60 55 53 49 49 47 48 48 45 43 40 38 36 36 36 31 32 32 33 37 37 39 40 42 45 46 44 46 49 43 44 48 49 49 50 53 55 56 58 58 53 50
53 50 47 45 46 46 44 43 43 42 42 41 38 36 35 32 30 30 31 35 36 34 35 32 26 27 33 41 45 49 43 45 47 46 45 47 49 49 51 52 57 58 56
44 41 41 43 43 44 39 41 42 43 41 36 38 35 33 31 30 31 31 31 29 32 26 23 24 24 23 27 31 35 40 43 45 44 44 41 42 45 47 49 50 53 56
38 38 39 40 39 40 39 38 43 45 42 36 32 31 28 25 29 30 27 29 31 26 25 27 24 26 26 25 28 28 32 37 38 37 39 38 42 44 44 45 45 48 50
37 35 36 39 38 39 38 36 41 36 41 30 28 27 24 24 28 25 25 25 15 10 12 19 24 13 19 14 24 26 25 25 30 33 34 34 38 40 40 43 42 44 47
33 34 35 36 36 37 38 33 38 34 31 26 21 20 24 23 19 19 18 14 4 6 11 18 20 20 18 19 19 21 21 24 26 28 30 32 36 38 38 38 39 41 41
33 33 32 31 32 35 35 32 33 33 32 26 16 13 8 8 13 10 4 4 5 5 9 15 14 8 11 19 21 18 20 21 23 24 28 31 34 35 36 37 38 39 39
32 32 32 30 30 30 32 32 33 31 26 25 20 13 11 13 13 14 11 5 8 9 10 11 15 10 15 5 16 20 22 20 23 21 22 25 29 30 32 34 36 37 39
33 33 33 33 32 30 31 31 31 31 26 25 17 12 10 6 7 10 11 11 7 9 8 10 10 13 14 13 6 15 8 32 24 23 24 25 25 27 29 33 35 37 37
38 38 37 34 32 31 29 29 28 28 26 21 15 12 9 7 5 6 11 10 10 9 8 9 10 12 14 16 8 12 13 7 13 17 23 22 27 30 26 26 26 25 33
37 36 35 32 28 28 27 28 25 25 23 19 17 13 11 8 11 11 10 10 13 15 11 10 10 11 11 12 13 10 17 8 16 12 12 21 18 19 27 22 14 15 16
31 31 30 28 27 27 25 27 25 25 26 18 17 14 14 14 13 9 11 12 12 15 17 15 15 11 11 12 13 12 13 15 6 6 11 16 17 14 15 19 21 19 20
30 29 30 29 28 30 31 29 26 25 20 19 18 15 18 18 16 15 12 13 16 18 18 17 17 17 17 15 14 13 13 11 11 11 12 15 17 19 22 24 27 33 25
30 32 33 33 32 29 27 25 21 22 22 22 19 15 12 14 15 12 13 13 16 18 17 16 18 19 17 17 18 16 16 16 16 16 16 17 17 18 18 19 19 18 17
33 32 31 29 27 28 25 23 20 18 15 16 13 11 15 13 11 10 12 14 13 15 16 15 15 16 17 16 19 20 19 20 19 20 20 20 21 21 21 22 22 21 21
32 32 32 29 25 21 21 21 23 22 18 16 14 10 13 9 13 16 19 16 15 16 18 20 21 19 19 20 19 20 21 21 21 21 23 24 22 22 23 22 23 25 25
Wind_Direction
297 298 299 299 296 295 293 290 288 286 286 286 286 286 283 281 281 281 281 282 282 281 280 281 281 280 277 275 274 272 271 267 261 246 250 254 258 262 261 260 266 268 276
299 299 301 300 297 296 293 290 287 286 285 284 282 281 283 285 287 286 282 281 281 281 280 278 278 277 276 273 272 269 267 265 261 249 247 252 256 260 262 260 264 267 278
296 297 298 297 297 296 293 292 292 290 289 285 283 281 281 280 282 283 282 280 278 278 278 277 276 274 274 272 270 266 263 261 258 253 247 247 249 254 258 257 260 265 272
296 299 299 299 298 296 296 296 294 291 287 285 283 283 282 281 280 280 279 279 276 275 274 273 272 273 271 269 267 264 261 258 256 254 250 247 242 244 251 254 256 260 268
294 297 298 298 298 298 298 297 295 293 292 291 290 288 285 284 282 280 278 277 277 275 274 275 272 270 267 267 264 261 257 257 254 252 248 248 237 236 242 244 250 257 264
296 296 298 299 299 299 299 298 297 297 298 297 295 293 288 284 281 279 277 277 275 274 274 272 271 269 266 264 257 256 254 251 251 251 246 244 237 231 237 240 245 251 260
297 300 299 299 299 299 300 300 300 300 300 297 292 290 289 285 278 273 272 274 274 273 273 272 269 270 271 266 259 252 251 249 249 248 245 243 238 231 232 236 242 245 250
298 297 297 299 300 300 301 303 302 299 296 295 295 295 291 285 278 273 268 270 271 272 269 267 267 268 268 264 258 252 248 248 247 246 245 240 237 232 232 234 237 241 243
295 298 299 299 300 302 304 303 301 300 300 297 296 298 292 286 282 276 267 265 268 271 274 274 272 267 266 259 258 254 246 243 246 246 245 241 236 232 234 235 234 239 242
296 296 297 299 301 304 303 304 303 300 304 301 301 298 298 286 281 270 269 271 274 279 276 272 270 267 262 256 254 249 243 242 244 244 242 241 240 234 233 235 235 238 239
294 297 298 298 303 305 303 306 307 304 303 299 300 296 296 291 283 276 276 279 279 277 276 275 275 268 261 255 253 245 243 240 242 242 239 239 240 237 233 233 237 238 239
298 296 298 299 307 307 304 307 308 308 299 294 295 293 294 288 283 281 280 282 283 282 280 275 280 279 264 253 248 244 240 240 241 244 240 240 240 238 235 233 235 239 241
297 297 303 306 308 306 305 310 314 313 305 296 285 286 287 283 282 283 284 280 278 279 275 271 280 280 267 247 244 240 240 241 243 241 242 241 240 238 235 232 236 239 240
298 301 305 306 307 310 306 308 318 315 314 304 287 282 281 280 282 284 278 285 291 280 265 269 280 279 276 261 253 246 246 240 240 236 237 236 234 232 231 232 237 238 240
300 301 303 307 307 313 309 309 317 314 322 313 288 273 278 284 284 281 276 279 252 256 295 291 288 277 257 261 254 251 243 237 233 234 234 231 231 230 230 233 238 239 240
300 305 306 307 311 312 318 314 319 322 325 323 316 279 276 280 280 282 268 243 267 287 317 321 305 278 260 240 249 246 233 231 229 228 227 225 226 229 232 236 241 243 246
301 303 305 309 312 313 324 318 317 317 324 319 324 330 297 291 274 277 280 325 332 344 320 318 325 279 234 239 242 238 228 226 228 231 224 223 228 229 230 237 243 245 247
301 303 305 307 311 315 320 320 318 316 314 318 313 280 311 299 294 300 275 273 306 306 304 309 336 330 307 249 249 234 247 223 228 225 221 220 221 222 227 233 237 242 249
302 303 303 305 307 309 313 318 319 320 320 312 297 278 299 282 293 332 323 293 288 298 301 305 313 327 333 172 188 216 175 205 210 193 219 224 227 229 237 242 245 244 247
303 303 303 304 302 301 301 307 313 314 314 310 285 267 287 271 241 307 322 298 292 290 294 309 306 302 315 328 325 193 184 198 166 210 217 220 232 228 224 232 235 232 239
301 299 298 300 299 300 296 295 305 305 307 298 289 279 268 301 251 245 270 283 288 290 304 301 312 302 299 301 310 307 255 226 193 208 199 185 218 218 224 214 185 226 216
304 303 298 293 288 296 299 291 291 294 297 301 282 272 294 276 233 250 271 281 288 290 289 281 285 291 294 299 302 303 307 317 309 261 221 231 239 230 235 235 243 224 211
308 306 304 299 294 285 285 288 289 286 287 288 294 287 285 275 263 254 267 282 282 276 279 279 284 295 286 282 280 284 285 278 270 277 277 272 265 253 248 256 262 255 242
319 313 305 297 292 287 280 274 278 281 278 291 299 297 300 273 273 283 288 291 285 278 283 280 280 282 285 281 277 275 275 273 266 260 256 251 249 249 250 249 250 254 257
327 323 318 311 296 280 271 260 240 251 272 283 281 307 317 279 251 271 291 301 308 293 287 286 286 286 282 286 288 282 269 266 265 265 259 254 253 250 250 250 248 247 248
344 340 332 328 313 283 260 255 233 239 256 273 270 300 337 284 258 265 265 289 291 300 296 297 294 289 286 287 286 281 279 278 272 266 267 264 259 258 256 254 256 256 252